www.pogodaiklimat.ru

Погода и климат >> Архив погоды >> Россия >> Камчатский край >> Мыс Лопатка


ПОГОДА на Мысе Лопатка

  • Прогноз погоды на Мысе Лопатка
  • Монитор погоды на Мысе Лопатка
  • Климат города

АРХИВ ПОГОДЫ на Мысе Лопатка

Время (UTC), дата Ветер
(напр.,м/с)
 
Видим.   Явления Облачность Т
(С)
Тd
(С)
f
(%)
Тe
(С)
Тes
(С)
Комфортность P
(гПа)
Po
(гПа)
Тmin
(С)
Tmax
(С)
R
(мм)
R24
(мм)
S
(см)
03 14.10 З 10-15
{16}
20 км в посл. час ливневой дождь 8/8 600 м
[Sc]
+6.4 +1.9 73 +1 +1 1011.6 1005.4
06 14.10 З 12-17
{17}
20 км {ливн. осадки} 9/9 600 м
[Sc]
+5.2 +2.3 82 -2 -2 1012.4 1006.2
09 14.10 СЗ 10-12
{17}
65 км 8/8 600 м
[Sc]
+4.7 +0.9 76 -2 -2 1013.4 1007.2 +6.4 2
12 14.10 СЗ 10-13
{18}
20 км 8/8 600 м
[Sc]
+4.9 +0.9 75 -1 -1 1013.9 1007.7
15 14.10 З 10-13
{16}
20 км 6/6 600 м
[Sc]
+5.1 +1.3 76 -1 -1 1013.9 1007.7
18 14.10 СЗ 10-12
{16}
20 км 10/10 600 м
[Sc]
+4.3 +2.0 85 -2 -2 1014.9 1008.7
21 14.10 СЗ 10-12
{15}
20 км {ливн. осадки} 9/9 600 м
[Sc]
+4.9 +2.6 85 -2 -2 1015.4 1009.1 +3.4 1
00 15.10 З 5 20 км {ливн. осадки} 9/9 600 м
[Sc]
+5.1 +2.4 83 +1 +1 1016.0 1009.7
03 15.10 ЮЗ 3 20 км 8/8 600 м
[Sc]
+6.1 +1.8 74 +3 +4 1014.8 1008.6
06 15.10 СЗ 11-13
{13}
20 км 8/6 600 м
[Sc Ci fib]
+4.8 +1.4 79 -2 -2 1014.4 1008.2
09 15.10 З 5
{14}
20 км 8/6 600 м
[Sc Ci fib]
+4.9 +1.9 81 0 0 1014.3 1008.1 +6.8
12 15.10 С 1 20 км 6/4 600 м
[Sc Ci fib]
+3.6 +1.3 85 +2 +2 1012.8 1006.5
15 15.10 СВ 3 20 км 8/5 600 м
[Sc Ci fib]
+2.7 +1.4 91 -2 -2 1010.7 1004.5
18 15.10 СЗ 3 20 км 9/6 600 м
[Sc Ci fib]
+3.1 +1.1 87 -1 -1 1009.1 1002.9
21 15.10 СЗ 6
{11}
20 км 8/8 600 м
[Sc]
+3.9 +1.2 83 -2 -2 1009.2 1003.0 +1.9
00 16.10 СЗ 9-11
{12}
10 км слабый ливневой дождь 9/9 600 м
[Cb cap]
+5.1 +1.9 80 -1 -1 1009.3 1003.1
03 16.10 СЗ 9-11
{15}
10 км слабый ливневой дождь 9/9 600 м
[Cb cap]
+5.3 +1.7 78 -1 -1 1008.8 1002.6
06 16.10 СЗ 11-13
{16}
10 км слабый ливневой дождь 8/8 600 м
[Cb cap]
+4.1 +0.8 79 -3 -3 1009.1 1002.9
09 16.10 СЗ 11-14
{20}
10 км слабый ливневой дождь 9/9 600 м
[Cb cap]
+2.4 +0.9 90 -5 -5 1010.4 1004.1 +5.8 3
12 16.10 СЗ 10-13
{16}
10 км слабый ливневой дождь 9/9 600 м
[Cb cap]
+3.4 +1.2 85 -4 -4 1010.6 1004.4
15 16.10 З 12-15
{20}
10 км слабый ливневой дождь 8/8 600 м
[Cb cap]
+3.2 -0.1 79 -4 -4 1010.3 1004.0
18 16.10 СЗ 15-18
{20}
10 км слабый ливневой дождь 6/6 600 м
[Cb cap]
+3.7 +0.4 79 -4 -4 1010.5 1004.3
21 16.10 СЗ 11-14
{20}
20 км {ливн. осадки} 10/6 600 м
[Sc Ac trans Ci fib]
+3.8 +0.3 78 -3 -3 1011.8 1005.6 +1.7 2
00 17.10 З 8-12
{21}
20 км {ливн. осадки} 10/8 600 м
[Sc Ac trans Ci fib]
+4.0 +0.5 78 -2 -2 1012.6 1006.3
03 17.10 З 9-12
{16}
20 км {ливн. осадки} 9/6 600 м
[Sc Ac trans Ci fib]
+4.1 -0.2 74 -2 -2 1012.7 1006.4
06 17.10 З 8-12
{15}
20 км в посл. час ливневой дождь 9/8 600 м
[Sc Ci fib]
+2.2 +1.0 92 -5 -5 1013.7 1007.4
09 17.10 ЮЗ 4
{13}
20 км в посл. час ливневой дождь 8/8 600 м
[Sc]
+1.5 +0.8 95 -4 -4 1015.2 1008.9 +5.6 1
12 17.10 З 8-11
{11}
20 км {ливн. осадки} 8/8 600 м
[Sc]
+3.1 +0.2 81 -3 -3 1015.9 1009.6
15 17.10 ЮЗ 5
{12}
20 км {ливн. осадки} 8/8 600 м
[Sc]
+2.5 -0.2 82 -3 -3 1016.3 1010.0
18 17.10 ЮЗ 3 20 км {ливн. осадки} 4/4 600 м
[Sc]
+2.7 -1.9 72 -1 -1 1016.8 1010.5
21 17.10 штиль 0 20 км 8/8 600 м
[Sc]
+2.8 -0.6 78 +2 +2 1017.3 1011.0 +1.5 0.5
00 18.10 В 2 20 км 10/8 600 м
[Sc Ac und]
+4.0 +1.3 83 +1 +1 1016.9 1010.6
03 18.10 В 6 20 км 10/10 600 м
[Sc]
+3.5 +2.0 90 -2 -2 1015.3 1009.0
06 18.10 В 8-13
{13}
20 км 10/10 600 м
[Sc]
+2.0 -0.5 83 -5 -5 1013.2 1006.9
09 18.10 СВ 13-18
{18}
10 км слабый ливневой дождь 10/10 300 м
[Cb cap]
+1.3 +0.7 96 -8 -8 1009.9 1003.6 +4.7 2
12 18.10 СВ 15-21
{21}
10 км слабый ливневой дождь 10/10 300 м
[Cb cap]
+1.6 +0.7 94 -8 -8 1007.0 1000.7
15 18.10 СВ 13-17
{20}
10 км слабый ливневой дождь 10/10 300 м
[Cb cap]
+2.9 +1.2 89 -5 -5 1004.7 998.5
18 18.10 С 12-16
{17}
20 км в посл. час ливневой дождь 10/10 300 м
[Sc]
+4.0 +1.9 86 -3 -3 1004.8 998.6
21 18.10 С 15-19
{21}
20 км {ливн. осадки} 10/10 600 м
[Sc]
+4.1 -0.1 74 -4 -4 1006.6 1000.4 +1.2 8
00 19.10 С 12-14
{20}
20 км {ливн. осадки} 9/9 600 м
[Sc]
+5.4 -0.0 68 -1 -1 1008.6 1002.4
03 19.10 СЗ 15-19
{20}
20 км 8/6 600 м
[Sc Ac trans]
+6.6 -0.8 59 0 0 1009.4 1003.3
06 19.10 СЗ 13-16
{20}
20 км 8/8 600 м
[Sc]
+5.3 -0.4 67 -1 -1 1011.6 1005.4
09 19.10 СЗ 13-15
{18}
20 км 6/6 600 м
[Sc]
+4.9 -1.3 64 -2 -2 1014.1 1007.9 +6.7
12 19.10 СЗ 13-15
{17}
20 км 6/6 600 м
[Sc]
+4.0 -0.3 74 -3 -3 1016.0 1009.7
15 19.10 СЗ 12-14
{20}
20 км 6/6 600 м
[Sc]
+3.6 +0.9 82 -4 -4 1017.4 1011.1
18 19.10 СЗ 12-15
{19}
20 км в посл. час ливневой дождь 10/10 600 м
[Sc]
+4.7 +0.2 73 -2 -2 1019.3 1013.0
21 19.10 СЗ 10-13
{17}
20 км 5/5 600 м
[Sc]
+4.1 +0.9 80 -3 -3 1021.2 1014.9 +1.5 1
00 20.10 СЗ 7 20 км 8/5 600 м
[Sc Ac und]
+4.7 +1.3 79 -1 -1 1023.2 1016.9
03 20.10 СЗ 10-14
{14}
20 км 8/5 600 м
[Sc Ac trans]
+6.5 +1.2 69 +1 +1 1023.7 1017.5
06 20.10 СЗ 9-11
{14}
20 км 3/1 600 м
[Sc Ac trans]
+4.6 +1.1 78 -2 -2 1025.3 1019.0
09 20.10 ЮВ 9-11
{14}
20 км 1/1 600 м
[Sc]
+3.9 -0.5 73 -2 -2 1027.3 1021.0 +6.9
12 20.10 СЗ 8-10
{17}
20 км 1/1 600 м
[Sc]
+4.4 +0.4 75 -2 -2 1028.4 1022.1
15 20.10 СЗ 7
{13}
20 км 3/3 600 м
[Sc]
+4.3 +0.7 77 -1 -1 1029.6 1023.3
18 20.10 СЗ 6
{11}
20 км 3/3 600 м
[Sc]
+3.6 +0.8 82 -2 -2 1030.2 1023.9
21 20.10 С 10-12
{12}
50 км 1/0
[Ac trans]
+3.6 -0.9 72 -3 -3 1030.8 1024.5 +2.7
00 21.10 С 8-10
{12}
50 км 1/1 600 м
[Sc]
+5.2 -2.4 58 -0 +1 1032.5 1026.1

 

Местоположение метеостанции Мыс Лопатка (Камчатский край, Россия): широта 50.87 долгота 156.60 высота над уровнем моря 50 м.

В архиве по умолчанию представлена погода на Мысе Лопатка за последнюю неделю. Архивные данные за месяц целиком и за предыдущие месяцы, начиная с января 2011 года, Вы можете получить, выбрав интересующий диапазон дат из раскрывающегося списка и нажав кнопку "Ввод!".

Внимание! Время в таблицах - всемирное. Для получения местного времени необходимо прибавить поправку, которая на Мысе Лопатка равна 12 ч.

Смотрите также архив погоды в соседних городах и на ближайших метеорологических станциях:

Погода в Северо-Курильске (Сахалинская область, Россия) (41 км)
Погода в Озерной (Камчатский край, Россия) (69 км)
Погода в Водопадной (Камчатский край, Россия) (144 км)
Погода в Большерецке (Камчатский край, Россия) (219 км)
Погода в Начиках (Камчатский край, Россия) (261 км)
Погода в Петропавловск-Камчатском (Камчатский край, Россия) (261 км)
Погода в Петропавловском Маяке (Камчатский край, Россия) (266 км)
Погода в Сосновке (Камчатский край, Россия) (272 км)
Погода в Петропавловск-Камч. 2 (Камчатский край, Россия) (278 км)
Погода в Пущино (Камчатский край, Россия) (380 км)

Пояснения к столбцам:

Ветер - указаны скорость ветра в м/с - средняя за 10 мин, порывы в срок и между сроками (в фигурных скобках) и направление, откуда дует ветер: С - северный, СВ - северо-восточный, В - восточный, ЮВ - юго-восточный, Ю - южный, ЮЗ - юго-западный, З - западный, СЗ - северо-западный.
Видимость - горизонтальная дальность видимости в метрах или километрах. При видимости от 1 до 10 км при отсутствии осадков обычно наблюдается дымка, при ухудшении видимости до 1 км и менее - туман. В сухую погоду видимость может ухудшаться дымом, пылью или мглою.
Явления - указаны атмосферные явления, наблюдавшиеся в срок или в последний час перед сроком; фигурными скобками обозначены явления, наблюдавшиеся между сроками (за 1-3 часа до срока); квадратными скобками обозначены град или гололедные отложения с указанием их диаметра в мм.
Облачность - указаны через наклонную черту общая и нижняя облачность в баллах и высота нижней границы облаков в метрах; квадратными скобками обозначены формы облаков: Ci - перистые, Cs - перисто-слоистые, Cc - перисто-кучевые, Ac - высококучевые, As - высокослоистые, Sc - слоисто-кучевые, Ns - слоисто-дождевые, Cu - кучевые, Cb - кучево-дождевые. Подробнее классификацию облаков см. в Атласе облаков (PDF).
T - Температура воздуха - температура, измеренная на высоте 2 м над землей.
Td - Температура точки росы - температура, при понижении до которой содержащийся в воздухе водяной пар достигнет насыщения.
f - Относительная влажность воздуха - влажноcть воздуха, измеренная на высоте 2 м над землей.
Te - Эффективная температура - температура, которую ощущает одетый по сезону человек в тени. Характеристика душности погоды. При расчете учитывается влияние влажности воздуха и скорости ветра на теплоощущения человека.
Tes - Эффективная температура на солнце - температура, которую ощущает человек, с поправкой на солнечный нагрев. Характеристика знойности погоды. Зависит от высоты солнца над горизонтом, облачности и скорости ветра. Ночью, в пасмурную погоду, а также при ветре 12 м/с и более поправка равна нулю.
P - Атмосферное давление - приведенное к уровню моря атмосферное давление.
Po - Атмосферное давление - измеренное на уровне метеостанции атмосферное давление.
Tmin - Минимальная температура - минимум температуры воздуха на высоте 2 м над землей.
Tmax - Максимальная температура - максимум температуры воздуха на высоте 2 м над землей.
R - Количество осадков - Количество выпавших осадков за период времени, мм. При наведении курсора мыши на число - период времени, за который выпало указанное количество осадков.
R24 - Количество осадков - Количество выпавших осадков за 24 часа, мм.
S - Снежный покров - Высота снежного покрова, см. При наведении курсора мыши на число - состояние снежного покрова и степень покрытия местности в баллах.